Location: Franzen
(48.6167°N, 15.3833°E)
Time: 18:15:16
(UTC+00:00)

Altair - Pass Details

Date: 02 August 2021
Orbit: 1501 x 1682 km, 47.2° (Epoch: 19 September)

Event Time Altitude Azimuth Distance (km) Brightness Sun altitude
Rises 01:31:24 0° 244° (WSW) 4,737 - -16.1°
Reaches altitude 10° 01:34:30 10° 242° (WSW) 3,732 - -15.8°
Exits shadow 01:36:09 17° 241° (WSW) 3,210 8.6 -15.6°
Maximum altitude 01:43:48 71° 161° (SSE) 1,593 7.5 -14.8°
Drops below altitude 10° 01:52:55 10° 80° (E) 3,656 10.3 -13.8°
Sets 01:55:56 0° 79° (ENE) 4,637 10.9 -13.5°
